Regional Weather Roundup
Issued by NWS Wakefield, VA

Home | Current Version | Previous Version | Text Only | Print | Product List | Glossary Off
Versions: 1 2 3 4 5 6 7 8 9 10 11 12 13 14 15 16 17 18 19 20 21 22 23 24 25 26 27 28 29 30 31 32 33 34 35 36 37 38 39 40 41 42 43 44 45 46 47 48 49 50

000
ASUS41 KAKQ 200315
RWRAKQ

REGIONAL WEATHER ROUNDUP
NATIONAL WEATHER SERVICE WAKEFIELD VA
1100 PM EDT WED JUL 19 2017

Note: "fair" indicates few or no clouds below 12,000 feet with no
significant weather and/or obstructions to visibility. * = Denotes
station may not report precipitation (e.g., rain,snow,etc.),
thunder or fog.

VAZ042-051-052>054-056-200400-
NORTHERN VIRGINIA

CITY           SKY/WX    TMP DP  RH WIND       PRES   REMARKS
WASH NATIONAL  PTCLDY    85  75  72 S7        30.03R
DULLES         PTCLDY    79  71  76 SW3       30.03S
FORT BELVOIR   CLEAR     77  73  87 CALM      30.03R
QUANTICO       CLEAR     85  78  80 S8        30.03S HX  96
FREDERICKSBRG* CLEAR     80  75  85 CALM      30.02F
STAFFORD*      CLEAR     75  75 100 CALM      30.08S
WARRENTON      CLEAR     75  69  82 CALM      30.04S
CULPEPER*      CLEAR     76  74  96 CALM      30.05S
MANASSAS*      CLEAR     78  74  87 CALM      30.04R
LEESBURG*      CLEAR     81  77  89 CALM      30.05S
WINCHESTER     CLEAR     75  70  83 CALM      30.06S
FRONT ROYAL*   CLEAR     79  72  78 CALM      30.06R
LURAY*         MOCLDY    77  72  83 CALM      30.08S
$$

VAZ048-049-060>072-079>083-200400-
CENTRAL AND SOUTH CENTRAL VIRGINIA

CITY           SKY/WX    TMP DP  RH WIND       PRES   REMARKS
RICHMOND       CLEAR     80  69  69 S5        30.05S
CHESTERFIELD*  FAIR      79  70  74 S5        30.06S
PETERSBURG*    CLEAR     76  69  78 CALM      30.07S
HANOVER        CLEAR     81  67  62 VRB6      30.05F
TAPPAHANNOCK*  CLEAR     78  68  70 CALM      30.05F
QUINTON*       FAIR      77  73  88 CALM      30.05S
CHARLOTTSVILLE MOCLDY    80  73  79 CALM      30.06S
GORDONSVILLE*  CLEAR     76  71  86 CALM      30.05S
ORANGE*        CLEAR     73  70  88 CALM      30.05S
LOUISA*        CLEAR     81  70  69 S3        30.05F
BUMPASS*       FAIR      77  71  81 CALM      30.04F
FARMVILLE*     CLEAR     77  68  72 CALM      30.05F
CREWE*         FAIR      74  67  78 CALM      30.07S
FORT PICKETT*  FAIR     N/A N/A N/A S3        30.07S
CHASE CITY*    FAIR      75  71  86 CALM      30.08S
CLARKSVILLE*   FAIR      73  73 100 CALM      30.07S
SOUTH HILL*    CLEAR     76  72  87 CALM      30.13S
LAWRENCEVILLE* FAIR      75  69  81 CALM      30.07S
EMPORIA*       CLEAR     73  70  88 CALM      30.08F
$$

VAZ088>098-200400-
SOUTHEAST VIRGINIA

CITY           SKY/WX    TMP DP  RH WIND       PRES   REMARKS
NORFOLK        CLEAR     80  74  81 S9        30.06S
VIRGINIA BEACH PTCLDY    79  72  79 SW8       30.06S
NORFOLK NAVAL  PTCLDY    81  72  74 SW9       30.08R
WEST POINT*    CLEAR     78  73  84 CALM      30.07S
SALUDA*        FAIR      79  76  92 S7        30.05S
NEWPORT NEWS   CLEAR     82  72  71 S8        30.06S
LANGLEY AFB    CLEAR     81  73  76 S12       30.05F
FORT EUSTIS    CLEAR     82  74  76 S6        30.04S
WILLIAMSBURG*  CLEAR     84  73  70 S6        30.07R
HR EXEC AP*    FAIR      77  72  83 S7        30.05S
FRANKLIN*      NOT AVBL
US460-WAKEFLD  CLEAR     76  72  87 CALM      30.07R
$$

VAZ020-022-025-037-045-200400-
WEST CENTRAL AND SOUTHWEST VIRGINIA

CITY           SKY/WX    TMP DP  RH WIND       PRES   REMARKS
STAUNTON*      MOCLDY    73  69  86 CALM      30.12S
WAYNESBORO*    PTCLDY    75  69  80 SW3       30.12S
HOT SPRINGS VA PTCLDY    72  52  49 CALM      30.27F
LYNCHBURG      PTCLDY    76  70  82 SW3       30.10S
DANVILLE       CLEAR     73  73 100 CALM      30.09R
SOUTH BOSTON*  FAIR      75  73  95 CALM      30.07S
MARTINSVILLE   PTCLDY    72  70  94 CALM      30.14R
ROANOKE        PTCLDY    79  64  60 CALM      30.13R
BLACKSBURG     MOCLDY    72  63  73 CALM      30.21R
DUBLIN*        CLEAR     74  63  68 CALM      30.19S
MARION*        PTCLDY    71  64  80 CALM      30.24R
HILLSVILLE*    CLOUDY    75  63  65 CALM      30.21S
RICHLANDS*     FAIR      76  57  52 CALM      30.22S
WISE*          CLEAR     75  61  60 CALM      30.23S
ABINGDON*      CLEAR     74  67  79 CALM      30.18S
$$

MDZ021>025-VAZ099-100-200400-
SOUTHERN MARYLAND AND THE DELMARVA PENINSULA

CITY           SKY/WX    TMP DP  RH WIND       PRES   REMARKS
PATUXENT RIVER PTCLDY    81  75  82 S7        30.03F
BAY BRIDGE APT CLEAR     84  75  74 S7        30.02R
LEONARDTOWN    CLEAR    N/A N/A N/A S3        30.05F
DOVER          PTCLDY    77  77 100 S5        30.01S
GEORGETOWN     CLEAR     78  75  90 S8        30.03F
EASTON         CLEAR     83  72  69 SW8       30.06F
CAMBRIDGE      CLEAR     81  73  78 VRB3      30.03F
SALISBURY      NOT AVBL
OCEAN CITY     CLEAR     79  74  84 SW7       30.04F
WALLOPS ISLAND CLEAR     76  75  97 SW9       30.06S
ACCOMACK*      CLEAR     77  74  88 S6        30.06S
$$

NCZ012>017-030>032-200400-
NORTH CENTRAL AND EASTERN NORTH CAROLINA

CITY           SKY/WX    TMP DP  RH WIND       PRES   REMARKS
ROANOKE RAPIDS FAIR      77  72  83 S6        30.08R
RALEIGH        CLEAR     80  71  74 SE3       30.08S
ELIZABETH CITY CLEAR     77  75  93 SW5       30.08S
AHOSKIE*         N/A     75  73  93 S3        30.08S
EDENTON*       CLEAR     80  73  78 SW6       30.09S
CURRITUCK*     CLEAR     79  75  88 S3        30.08F
KILL DEVIL HLS CLEAR     78  71  79 CALM      30.07S
MANTEO         CLEAR     79  72  79 W8        30.09S
CAPE HATTERAS  CLEAR     80  74  81 SW6       30.09R
TARBORO*       NOT AVBL
GOLDSBORO      CLEAR     77  76  99 S3        30.07S
WASHINGTON     CLEAR     76  71  84 S3        30.08F
GREENVILLE     CLEAR     77  73  88 S5        30.10S
NEW BERN       CLEAR     73  72  96 CALM      30.09S
WILMINGTON     CLEAR     73  72  96 CALM      30.08S
$$

VAZ048-200400-
ELSEWHERE

CITY           SKY/WX    TMP DP  RH WIND       PRES   REMARKS
HARRISBURG PA  PTCLDY    75  74  96 CALM      30.01S
BALTIMORE      PTCLDY    81  75  82 SW3       30.02R
ANNAPOLIS      CLEAR     81  78  91 CALM      30.02R
ANDREWS AFB    CLEAR     79  72  78 S6        30.03S
PHILADELPHIA   PTCLDY    82  73  74 S7        30.01S
HENDERSON NC   CLEAR     73  68  83 CALM      30.09R
GREENSBORO     CLEAR     81  71  71 SW3       30.10R
ROCKY MOUNT    CLEAR     77  74  90 S5        30.08S
$$

VAZ100-200400-
MARINE

STATION/POSITION TIME  TEMP    WIND        PRES    WAVE   SWELL
                       AIR SEA DIR/SP/G            HT/PER HT/PER
                 (UTC) (F)     (DEG/KT/KT) (MB)    (FT/S) (FT/S)
BRANDYWINE LGT   0248   78     210/ 13/ 14 1016.8F
CAPE MAY NJ      0248   77 75  200/  5/  7 1016.1F
LEWES DE         0248   80 74  220/  6/  9 1016.4F
15NM E FENWICK I 0150   78 78  220/ 12/ 14 1017.7    2/ 8   2/ 8
OCEAN-CITY-INLET 0248   74 72  220/ 10/ 11 1017.7F
WACHAPREAGUE VA  0248   79 85  180/  9/ 11 1017.9F
THOMAS POINT MD  0300   83 82  210/ 13/ 14   N/A
GOOSES REEF MD   0300   84 84  240/ 12/ 16 1017.2    1/ 2
COVE POINT MD    0248   81     200/ 10/ 11 1017.5F
SOLOMONS ISLAND  0248   83 85  180/  7/  8   N/A
BISHOPS HEAD MD  0248   84 88  190/ 12/ 15 1017.2F
PINEY POINT MD   0242          200/ 10/ 12   N/A
POTOMAC MD       0300   83 84  200/ 12/ 14 1016.3    1/ 2
CAMBRIDGE MD     0242   81 87              1017.7F
LEWISETTA VA     0248   81 86  200/  9/ 11 1017.1F
RAPPAHANNOCK LGT 0242          170/ 13/ 15 1018.4F
STINGRAY PT      0250   83     200/ 12/ 14 1017.8R
YORK RVR RNG VA  0248   83     210/ 12/ 15 1018.0S
YORKTOWN VA      0248   83 83  200/  7/  9 1017.4S
JAMESTOWN VA     0300      87  200/  8/ 10   N/A
DOMINION TERM VA 0248   82     200/ 10/ 12 1018.0R
KIPTOPEKE VA     0242      78  170/  6/  7   N/A
CHES BAY BRIDGE  0248   81 74  210/ 12/ 14 1017.9S
CAPE HENRY VA    0248   80     200/  7/  9   N/A
WILLOUBY STN VA  0248   82     190/ 15/ 18 1017.8R
S CRANEY ISL VA  0248   82     200/  9/ 13 1018.0R
CAPE HENRY BUOY  0230      75                N/A     2/15   2/15
1ST LANDING BUOY 0300   81 78              1017.8    1
64NM E OF VA BCH 0250   80 80  230/ 12/ 12 1018.9S   3/ 8   2/ 8
DUCK PIER NC     0248   80 62  220/  8/ 12 1018.1F
44100 DUCK FRF   0205      76                N/A     2/17   2/17
44056 DUCK FRF   0230      69                N/A     2/17   2/17
OREGON INLET NC  0248          210/  8/  9   N/A
HATTERAS NC      0248   80 80  210/  5/  7 1018.7R
DIAMOND SHLS NC  0250   82 84  210/ 12/ 14 1018.4F   2/ 8   2/ 8
CAPE LOOKOUT NC  0300   80     170/  6/  6 1018.0F
$$



USA.gov is the U.S. government's official web portal to all federal, state and local government web resources and services.